Location: Days
(41.3591°N, 106.7339°W)
Time: 14:18:23
(UTC+00:00)

O/OREOS (USA 219) - Pass Details

Date: 30 June 2022
Orbit: 621 x 646 km, 72.0° (Epoch: 22 May)

Event Time Altitude Azimuth Distance (km) Brightness Sun altitude
Rises 08:31:46 0° 329° (NNW) 2,962 ? -22.8°
Reaches altitude 10° 08:34:11 10° 321° (NW) 2,050 ? -22.6°
Enters shadow 08:37:50 35° 272° (W) 1,038 ? -22.4°
